Tracking 28348 objects as of 9-Dec-2023
HD Live streaming from Space Station
objects crossing your sky now

ATLAS 5 CENTAUR DEB

Track ATLAS 5 CENTAUR DEB now!


NORAD ID: 46607
Int'l Code: 2018-079CF
Perigee: 7,831.5 km
Apogee: 31,756.0 km
Inclination: 12.2 °
Period: 702.0 minutes
Semi major axis: 26164 km
RCS: Unknown
Launch date: October 17, 2018
Source: United States (US)
Launch site: AIR FORCE EASTERN TEST RANGE (AFETR)

Note: This is SATELLITE DEBRIS
Your satellite tracking list
Your tracking list is empty




NASA's NSSDC Master Catalog

Two Line Element Set (TLE):
1 46607U 18079CF  23339.65665236 -.00000042  00000-0  00000-0 0  9994
2 46607  12.2471  89.5780 4571902 231.5005  77.8570  2.05129658 31481
Source of the keplerian elements: AFSPC